This demonstration page uses our WeatherBlox Daily Observations layout. Learn more.

Left ArrowRight Arrow

34.02893, -84.19858

Hourly Observations for January 28, 2018

Temp ( °F °C ) Dew Point ( °F °C ) Humidity (%) Winds ( mph kmh ) Pressure ( in mb ) Visibility ( mi km ) Precip ( " mm )
12:10 am 00:10 Cloudy with Mist and Fog 50 10 49 9.4 96 96 VRB 3 6 30.33 1027 4 6 0.00 0.00
12:53 am 00:53 Cloudy with Light Rain 51 10.6 50 10 96 96 E 3 6 30.29 1026 3 5 0.00 0.03
1:17 am 01:17 Cloudy with Light Rain 51 10.6 50 10 96 96 ENE 3 6 30.30 1026 3 4 0.02 0.51
1:53 am 01:53 Cloudy with Light Rain 51 10.6 50 10 96 96 ENE 6 9 30.27 1025 3 4 0.09 2.29
2:04 am 02:04 Cloudy with Light Rain 51 10.6 50 10 96 96 E 5 7 30.30 1026 3 5 0.01 0.25
2:14 am 02:14 Cloudy with Light Rain 51 10.6 50 10 96 96 VRB 3 6 30.30 1026 2 3 0.03 0.76
2:25 am 02:25 Cloudy with Light Rain 51 10.6 50 10 96 96 ENE 3 6 30.30 1026 3 5 0.05 1.27
2:42 am 02:42 Cloudy with Light Rain 51 10.6 50 10 96 96 VRB 3 6 30.30 1026 4 6 0.06 1.52
2:53 am 02:53 Cloudy with Light Rain 51 10.6 50 10 96 96 N 5 7 30.27 1025 4 6 0.06 1.52
3:27 am 03:27 Cloudy with Rain 51 10.6 50 10 96 96 ENE 3 6 30.24 1024 3 5 0.03 0.76
3:33 am 03:33 Cloudy with Rain 51 10.6 50 10 96 96 VRB 3 6 30.24 1024 2 3 0.04 1.02
3:43 am 03:43 Cloudy with Light Rain 51 10.6 50 10 96 96 VRB 5 7 30.24 1024 3 5 0.05 1.27
3:53 am 03:53 Cloudy with Light Rain 51 10.6 50 10 96 96 Calm 30.25 1025 5 8 0.05 1.27
4:37 am 04:37 Cloudy with Mist and Fog 51 10.6 50 10 96 96 Calm 30.24 1024 3 5 0.00 0.03
4:53 am 04:53 Cloudy with Mist and Fog 51 10.6 50 10 96 96 Calm 30.24 1024 3 5 0.00 0.03
5:28 am 05:28 Cloudy with Light Rain 51 10.6 50 10 96 96 Calm 30.24 1024 3 4 0.00 0.03
5:38 am 05:38 Cloudy with Mist and Fog 51 10.6 50 10 96 96 Calm 30.24 1024 4 6 0.00 0.03
5:53 am 05:53 Cloudy with Mist and Fog 51 10.6 51 10.6 100 100 Calm 30.24 1024 3 5 0.00 0.03
6:03 am 06:03 Cloudy with Mist and Fog 51 10.6 50 10 96 96 Calm 30.24 1024 3 4 0.00 0.00
6:23 am 06:23 Cloudy with Mist and Fog 51 10.6 50 10 96 96 VRB 3 6 30.24 1024 2 3 0.00 0.00
6:44 am 06:44 Cloudy with Mist and Fog 51 10.6 50 10 96 96 ENE 6 9 30.21 1023 2 2 0.00 0.00
6:53 am 06:53 Cloudy with Mist and Fog 51 10.6 50 10 96 96 VRB 5 7 30.22 1024 1 2 0.00 0.00
7:26 am 07:26 Cloudy with Mist and Fog 51 10.6 51 10.6 100 100 Calm 30.24 1024 1 1 0.00 0.00
7:38 am 07:38 Mostly Cloudy with Fog 51 10.6 50 10 96 96 E 3 6 30.21 1023 1 1 0.00 0.00
7:53 am 07:53 Mostly Cloudy with Fog 51 10.6 50 10 96 96 Calm 30.24 1024 1 1 0.00 0.00
8:53 am 08:53 Cloudy with Mist and Fog 51 10.6 51 10.6 100 100 Calm 30.24 1024 1 2 0.02 0.51
9:01 am 09:01 Cloudy with Light Rain 51 10.6 51 10.6 100 100 Calm 30.24 1024 1 1 0.00 0.03
9:50 am 09:50 Cloudy with Rain 52 11 52 11 100 100 NNE 5 7 30.24 1024 1 1 0.06 1.52
9:53 am 09:53 Cloudy with Rain 51 10.6 51 10.6 100 100 NE 3 6 30.24 1024 1 1 0.07 1.78
10:00 am 10:00 Cloudy with Rain 51 10.6 51 10.6 100 100 Calm 30.24 1024 3 4 0.01 0.25
10:13 am 10:13 Cloudy with Rain 51 10.6 51 10.6 100 100 E 5 7 30.21 1023 2 2 0.06 1.52
10:27 am 10:27 Cloudy with Rain 51 10.6 51 10.6 100 100 VRB 3 6 30.21 1023 2 2 0.09 2.29
10:53 am 10:53 Cloudy with Light Rain 52 11.1 51 10.6 97 97 ENE 5 7 30.22 1023 2 2 0.13 3.30
11:00 am 11:00 Cloudy with Light Rain 52 11.1 51 10.6 97 97 ENE 5 7 30.21 1023 4 6 0.01 0.25
11:53 am 11:53 Cloudy with Light Rain 52 11.1 51 10.6 97 97 NE 6 9 30.19 1023 5 8 0.09 2.29
12:04 pm 12:04 Cloudy with Light Rain 52 11.1 51 10.6 97 97 NNE 5 7 30.18 1022 2 3 0.01 0.25
12:53 pm 12:53 Cloudy with Rain 53 11.7 52 11.1 96 96 NNE 7 11 30.14 1021 2 3 0.11 2.79
1:00 pm 13:00 Cloudy with Light Rain 53 11.7 52 11.1 96 96 NNE 6 9 30.15 1021 4 6 0.01 0.25
1:08 pm 13:08 Cloudy with Rain 53 11.7 52 11.1 96 96 NNE 3 6 30.12 1020 2 3 0.04 1.02
1:53 pm 13:53 Cloudy with Rain 53 11.7 52 11.1 96 96 ENE 5 7 30.11 1020 2 3 0.19 4.83
2:05 pm 14:05 Cloudy with Light Rain 53 11.7 52 11.1 96 96 Calm 30.12 1020 4 6 0.02 0.51
2:31 pm 14:31 Cloudy with Light Rain 53 11.7 52 11.1 96 96 Calm 30.09 1019 3 5 0.04 1.02
2:53 pm 14:53 Cloudy with Light Rain 54 12.2 53 11.7 97 97 Calm 30.11 1020 3 5 0.05 1.27
3:53 pm 15:53 Cloudy with Light Rain 54 12.2 52 11.1 93 93 N 5 7 30.10 1019 5 8 0.05 1.27
4:53 pm 16:53 Cloudy with Light Rain 54 12.2 53 11.7 97 97 NE 5 7 30.09 1019 5 8 0.05 1.27
5:53 pm 17:53 Cloudy 54 12.2 52 11.1 93 93 NNW 3 6 30.10 1019 10 16 0.01 0.25
6:53 pm 18:53 Cloudy 53 11.7 52 11.1 96 96 Calm 30.09 1019 7 11 0.00 0.00
7:02 pm 19:02 Cloudy 53 11.7 52 11.1 96 96 Calm 30.09 1019 7 11 0.00 0.00
7:24 pm 19:24 Cloudy 53 11.7 52 11.1 96 96 NW 3 6 30.09 1019 7 11 0.00 0.00
7:48 pm 19:48 Cloudy with Mist and Fog 54 12 52 11 94 94 NW 3 6 30.12 1020 6 10 0.00 0.00
7:53 pm 19:53 Cloudy with Mist and Fog 53 11.7 52 11.1 96 96 NW 3 6 30.11 1020 6 10 0.00 0.00
8:15 pm 20:15 Cloudy with Mist and Fog 53 11.7 52 11.1 96 96 Calm 30.12 1020 5 8 0.00 0.00
8:53 pm 20:53 Cloudy with Mist and Fog 53 11.7 52 11.1 96 96 Calm 30.11 1020 6 10 0.00 0.00
9:53 pm 21:53 Cloudy with Mist and Fog 53 11.7 52 11.1 96 96 NW 3 6 30.11 1020 4 6 0.00 0.00
10:14 pm 22:14 Cloudy with Mist and Fog 53 11.7 52 11.1 96 96 Calm 30.12 1020 3 4 0.00 0.00
10:30 pm 22:30 Cloudy with Light Rain 53 11.7 52 11.1 96 96 Calm 30.12 1020 2 2 0.00 0.03
10:53 pm 22:53 Cloudy with Light Rain 53 11.7 52 11.1 96 96 N 3 6 30.11 1020 1 2 0.02 0.51
11:05 pm 23:05 Cloudy with Light Rain 53 11.7 52 11.1 96 96 N 5 7 30.09 1019 1 2 0.00 0.03
11:15 pm 23:15 Cloudy with Mist and Fog 53 11.7 52 11.1 96 96 N 5 7 30.09 1019 2 3 0.01 0.25
11:23 pm 23:23 Cloudy with Mist and Fog 53 11.7 52 11.1 96 96 N 5 7 30.09 1019 3 4 0.01 0.25
11:25 pm 23:25 Cloudy with Mist and Fog 53 11.7 52 11.1 96 96 N 3 6 30.09 1019 3 5 0.01 0.25
11:43 pm 23:43 Cloudy with Mist and Fog 53 11.7 52 11.1 96 96 N 3 6 30.09 1019 3 4 0.01 0.25
11:53 pm 23:53 Cloudy with Mist and Fog 53 11.7 52 11.1 96 96 Calm 30.09 1019 3 4 0.01 0.25

Powered by AerisWeather